Charlotte, MI

10:13 PM EDT on March 28, 2017 (GMT -0400)
Charlotte

Weather History for KFPK - September, 2012

Change the Weather History Date:

Sunday, September 9, 2012

  Actual Average (KLAN) Record (KLAN)
Temperature  
Mean Temperature 58 °F -  
Max Temperature 70 °F 76 °F 94 °F (1897)
Min Temperature 46 °F 52 °F 30 °F (1879)
Degree Days  
Heating Degree Days 7    
Growing Degree Days 8 (Base 50)    
Moisture  
Dew Point 49 °F    
Average Humidity 74    
Maximum Humidity 98    
Minimum Humidity 40    
Precipitation  
Precipitation 0.00 in - - ()
Sea Level Pressure  
Sea Level Pressure 29.97 in    
Wind  
Wind Speed 2 mph (North)    
Max Wind Speed 12 mph    
Max Gust Speed -    
Visibility 9 miles    
Events      
Averages and records for this station are not official NWS values.
T = Trace of Precipitation, MM = Missing Value Source: NWS Daily Summary

Daily Weather History Graph

Daily Weather History Graph

Search for Another Location

Airport or City:

Trip Planner

Search our weather history database for the weather conditions in past years. The results will help you decide how hot, cold, wet, or windy it might be!

Date:

Astronomy

Sep. 09, 2012 Rise Set
Actual Time 7:13 AM EDT 7:58 PM EDT
Civil Twilight 6:44 AM EDT 8:27 PM EDT
Nautical Twilight 6:10 AM EDT 9:00 PM EDT
Astronomical Twilight 5:35 AM EDT 9:35 PM EDT
Moon 12:35 AM EDT (9/9) 3:49 PM EDT (9/9)
Length of Visible Light 13h 42m
Length of Day
12h 45m
Last Quarter, 39% of the Moon is Illuminated
Sep 9
Last Quarter
Sep 15
New
Sep 22
First Quarter
Sep 29
Full
Oct 8
Last Quarter

Hourly Weather History & Observations

Time (EDT) Temp. Dew Point Humidity Pressure Visibility Wind Dir Wind Speed Gust Speed Precip Events Conditions
12:15 AM 48.7 °F 47.5 °F 95% 29.85 in 10.0 mi Calm Calm - N/A   Clear
12:40 AM 49.1 °F 48.0 °F 96% 29.85 in 7.0 mi Calm Calm - N/A   Clear
12:55 AM 48.4 °F 47.3 °F 96% 29.85 in 10.0 mi Calm Calm - N/A   Clear
1:15 AM 49.1 °F 48.4 °F 97% 29.85 in 0.8 mi Calm Calm - N/A   Mist
1:35 AM 48.4 °F 47.7 °F 97% 29.85 in 10.0 mi Calm Calm - N/A   Clear
1:55 AM 48.0 °F 47.1 °F 97% 29.85 in 10.0 mi Calm Calm - N/A   Clear
2:15 AM 46.9 °F 46.0 °F 97% 29.85 in 7.0 mi Calm Calm - N/A   Clear
2:35 AM 48.4 °F 47.7 °F 97% 29.85 in 10.0 mi Calm Calm - N/A   Scattered Clouds
2:55 AM 49.3 °F 48.7 °F 98% 29.86 in 10.0 mi Calm Calm - N/A   Mostly Cloudy
3:15 AM 50.7 °F 50.2 °F 98% 29.86 in 10.0 mi SSW 3.5 mph - N/A   Overcast
3:35 AM 52.0 °F 51.3 °F 97% 29.85 in 10.0 mi Calm Calm - N/A   Overcast
3:55 AM 52.3 °F 51.4 °F 97% 29.86 in 10.0 mi Calm Calm - N/A   Mostly Cloudy
4:15 AM 52.0 °F 50.9 °F 96% 29.86 in 10.0 mi Calm Calm - N/A   Scattered Clouds
4:35 AM 50.4 °F 49.3 °F 96% 29.86 in 10.0 mi Calm Calm - N/A   Clear
4:55 AM 50.2 °F 49.1 °F 96% 29.86 in 10.0 mi Calm Calm - N/A   Clear
5:15 AM 50.2 °F 49.6 °F 98% 29.87 in 7.0 mi Calm Calm - N/A   Scattered Clouds
5:35 AM 50.0 °F 49.1 °F 97% 29.88 in 10.0 mi Calm Calm - N/A   Overcast
5:55 AM 50.9 °F 50.2 °F 97% 29.88 in 10.0 mi Calm Calm - N/A   Overcast
6:15 AM 51.4 °F 50.5 °F 97% 29.88 in 10.0 mi Calm Calm - N/A   Overcast
6:35 AM 50.9 °F 50.0 °F 97% 29.89 in 10.0 mi Calm Calm - N/A   Overcast
6:55 AM 50.9 °F 50.0 °F 97% 29.89 in 10.0 mi Calm Calm - N/A   Overcast
7:15 AM 51.3 °F 50.4 °F 97% 29.90 in 7.0 mi Calm Calm - N/A   Mostly Cloudy
7:55 AM 49.1 °F 48.2 °F 97% 29.92 in 1.2 mi Calm Calm - N/A   Mist
8:15 AM 52.3 °F 51.8 °F 98% 29.93 in 7.0 mi Calm Calm - N/A   Clear
8:35 AM 54.9 °F 54.0 °F 97% 29.94 in 10.0 mi Calm Calm - N/A   Clear
8:55 AM 56.5 °F 54.9 °F 94% 29.95 in 10.0 mi Calm Calm - N/A   Clear
9:15 AM 58.8 °F 55.9 °F 90% 29.95 in 10.0 mi North 4.6 mph - N/A   Mostly Cloudy
9:35 AM 60.3 °F 54.9 °F 82% 29.96 in 10.0 mi North 3.5 mph - N/A   Overcast
9:55 AM 61.9 °F 55.2 °F 79% 29.96 in 10.0 mi Calm Calm - N/A   Scattered Clouds
10:15 AM 63.5 °F 54.3 °F 72% 29.97 in 10.0 mi North 5.8 mph - N/A   Scattered Clouds
10:35 AM 64.2 °F 54.5 °F 71% 29.97 in 10.0 mi North 6.9 mph - N/A   Scattered Clouds
10:55 AM 64.9 °F 54.3 °F 68% 29.98 in 10.0 mi North 3.5 mph - N/A   Clear
11:35 AM 66.4 °F 51.8 °F 59% 29.98 in 10.0 mi NNW 3.5 mph - N/A   Clear
11:55 AM 67.5 °F 51.4 °F 56% 29.98 in 10.0 mi Calm Calm - N/A   Scattered Clouds
12:15 PM 68.5 °F 50.9 °F 53% 29.98 in 10.0 mi North 4.6 mph - N/A   Scattered Clouds
12:35 PM 68.2 °F 49.6 °F 51% 29.99 in 10.0 mi North 4.6 mph - N/A   Scattered Clouds
12:55 PM 69.3 °F 49.1 °F 49% 29.99 in 10.0 mi NNW 4.6 mph - N/A   Mostly Cloudy
1:15 PM 68.2 °F 49.6 °F 51% 30.00 in 10.0 mi NNE 8.1 mph - N/A   Mostly Cloudy
1:35 PM 69.4 °F 49.8 °F 50% 30.00 in 7.0 mi North 6.9 mph - N/A   Scattered Clouds
1:55 PM 67.6 °F 48.9 °F 51% 30.00 in 10.0 mi North 5.8 mph - N/A   Scattered Clouds
2:15 PM 67.3 °F 48.7 °F 51% 30.00 in 10.0 mi NNW 5.8 mph - N/A   Scattered Clouds
2:35 PM 70.3 °F 47.5 °F 44% 30.00 in 10.0 mi North 9.2 mph - N/A   Mostly Cloudy
2:55 PM 69.6 °F 48.7 °F 47% 30.00 in 10.0 mi North 9.2 mph - N/A   Mostly Cloudy
3:15 PM 70.9 °F 46.9 °F 42% 30.00 in 10.0 mi North 5.8 mph - N/A   Scattered Clouds
3:35 PM 69.6 °F 47.7 °F 45% 30.00 in 10.0 mi NNW 8.1 mph - N/A   Mostly Cloudy
3:55 PM 69.8 °F 48.6 °F 47% 30.01 in 10.0 mi North 6.9 mph - N/A   Mostly Cloudy
4:15 PM 70.9 °F 48.4 °F 45% 30.01 in 10.0 mi NNW 11.5 mph - N/A   Mostly Cloudy
4:35 PM 67.8 °F 48.4 °F 50% 30.01 in 10.0 mi North 3.5 mph - N/A   Scattered Clouds
5:15 PM 67.1 °F 48.6 °F 51% 30.02 in 10.0 mi NNW 4.6 mph - N/A   Mostly Cloudy
5:35 PM 67.8 °F 49.3 °F 51% 30.03 in 10.0 mi NW 6.9 mph - N/A   Mostly Cloudy
5:55 PM 67.6 °F 48.7 °F 51% 30.03 in 10.0 mi North 4.6 mph - N/A   Mostly Cloudy
6:15 PM 69.1 °F 47.7 °F 46% 30.03 in 10.0 mi North 3.5 mph - N/A   Mostly Cloudy
6:35 PM 69.3 °F 47.1 °F 45% 30.03 in 10.0 mi NNW 3.5 mph - N/A   Scattered Clouds
6:55 PM 68.5 °F 43.2 °F 40% 30.03 in 10.0 mi North 6.9 mph - N/A   Scattered Clouds
7:15 PM 67.5 °F 44.2 °F 43% 30.04 in 10.0 mi North 4.6 mph - N/A   Clear
7:35 PM 65.5 °F 44.6 °F 47% 30.04 in 10.0 mi North 3.5 mph - N/A   Clear
7:55 PM 64.2 °F 44.8 °F 49% 30.04 in 10.0 mi Calm Calm - N/A   Clear
8:15 PM 59.9 °F 46.8 °F 62% 30.05 in 7.0 mi Calm Calm - N/A   Clear
8:35 PM 59.0 °F 47.3 °F 65% 30.06 in 10.0 mi Calm Calm - N/A   Clear
8:55 PM 59.2 °F 47.7 °F 66% 30.07 in 10.0 mi North 3.5 mph - N/A   Clear
9:15 PM 55.9 °F 46.8 °F 71% 30.07 in 10.0 mi Calm Calm - N/A   Clear
9:35 PM 54.5 °F 48.9 °F 81% 30.08 in 10.0 mi Calm Calm - N/A   Clear
9:55 PM 52.9 °F 48.9 °F 86% 30.09 in 10.0 mi Calm Calm - N/A   Clear
10:15 PM 53.2 °F 48.7 °F 85% 30.09 in 10.0 mi Calm Calm - N/A   Clear
10:35 PM 52.2 °F 48.6 °F 88% 30.10 in 10.0 mi Calm Calm - N/A   Clear
10:55 PM 54.3 °F 47.8 °F 79% 30.10 in 10.0 mi Calm Calm - N/A   Clear
11:15 PM 52.2 °F 45.9 °F 79% 30.10 in 10.0 mi Calm Calm - N/A   Clear
11:35 PM 51.1 °F 47.7 °F 88% 30.11 in 10.0 mi Calm Calm - N/A   Clear
11:55 PM 50.4 °F 47.5 °F 90% 30.11 in 10.0 mi Calm Calm - N/A   Clear